SCP
0 0 0 0 0 0 0 0 0 0 0 0 0 0 0 0 0 0 0 0 0 0 0 0 0 0 0 0 0 0 0 0 0 0 0 0 0 0 0 0 0 0 0 0 0 0 -0 0 -0 -0 0 0 0 -0
0 0 0 0 0 0 0 0 0 0 0 0 0 0 0 0 0 0 0 0 0 0 0 0 0 0 0 0 0 0 0 0 0 0 0 0 0 0 0 0 0 0 0 0 0 0 0 -0 0 0 0 -0 -0 -0
0 0 0 0 0 0 0 0 0 0 0 0 0 0 0 0 0 0 0 0 0 0 0 0 0 0 0 0 0 0 0 0 0 0 0 0 0 0 0 0 0 0 0 0 0 0 -0 -0 -0 0 0 -0 -0 -0
0 0 0 0 0 0 0 0 0 0 0 0 0 0 0 0 0 0 0 0 0 0 0 0 0 -0 0 0 0 0 0 0 0 0 0 0 0 0 0 0 0 0 0 0 0 0 -0 0 0 0 -0 0 -0 -0
0 0 0 0 0 0 0 0 0 0 0 0 0 0 0 0 0 0 0 0 0 0 0 0 0 0 0 0 0 0 0 0 0 0 0 0 0 0 0 0 0 0 0 -0 -0 -0 0 -0 -0 -0 0 -0 -0 -0
0 0 0 0 0 0 0 0 0 0 0 0 0 0 0 0 0 0 0 0 0 0 0 0 0 0 0 0 0 0 0 0 0 0 0 0 0 0 0 0 0 0 0 0 -0 0 0 -0 0 0 -0 -0 -0 -0
0 0 0 0 0 0 0 0 0 0 0 0 0 0 0 0 0 0 0 0 0 0 0 0 0 0 0 0 0 0 0 0 0 0 0 0 0 0 0 0 0 0 0 0 0 0 -0 0 -0 -0 -0 -0 -0 -0
0 0 0 0 0 0 0 0 0 0 0 0 0 0 0 0 0 0 0 0 0 0 0 0 0 0 0 0 0 0 0 0 0 0 0 0 0 0 0 0 0 0 0 0 0 0 0 -0 -0 -0 -0 -0 -0 -0
0 0 0 0 0 0 0 0 0 0 0 0 0 0 0 0 0 0 0 0 0 0 0 0 0 0 0 0 0 0 0 0 0 0 0 0 0 0 0 0 -0 0 0 0 0 0 -0 -0 -0 0 -0 -0 -0 -0
0 0 0 0 0 0 0 0 0 0 0 0 0 0 0 0 0 0 0 0 0 0 0 0 0 0 0 0 0 0 0 0 0 0 0 0 0 0 0 0 0 0 0 0 -0 -0 -0 0 0 -0 -0 -0 -0 -0
0 0 0 0 0 0 0 0 0 0 0 0 0 0 0 0 0 0 0 0 0 0 0 0 0 0 0 0 0 0 0 0 0 0 0 0 0 -0 0 0 0 0 0 0 0 0 0 0 -0 -0 -0 -0 -0 0
0 0 0 0 0 0 0 0 0 0 0 0 0 0 0 0 0 0 0 0 0 0 0 0 0 0 0 0 0 0 0 0 0 0 0 0 -0 -0 0 0 0 0 0 0 0 -0 0 -0 0 0 -0 -0 -0 0
0 0 0 0 0 0 0 0 0 0 0 0 0 0 0 0 0 0 0 0 0 0 0 0 0 0 0 0 0 0 0 0 0 0 0 0 -0 -0 0 0 0 0 0 -0 -0 0 -0 0 0 -0 0 0 0 0
0 0 0 0 0 0 0 0 0 0 0 0 0 0 0 0 0 0 0 0 0 0 0 0 0 0 0 0 0 0 0 0 0 0 0 -0 -0 -0 0 0 0 0 -0 -0 -0 -0 0 0 0 0 0 0 0 0
0 0 0 0 0 0 0 0 0 0 0 0 0 0 0 0 0 0 0 0 0 0 0 0 0 0 0 0 0 0 0 0 0 0 -0 -0 -0 -0 -0 -0 0 -0 -0 -0 -0 -0 0 0 0 0 0 0 0 0
0 0 0 0 0 0 0 0 0 0 0 0 0 0 0 0 0 0 0 0 0 -0 0 0 0 0 0 0 0 0 0 0 -0 -0 -0 -0 -0 -0 -0 0 0 -0 -0 -0 -0 0 -0 0 0 0 0 0 0 0
0 0 0 0 0 0 0 0 0 0 0 0 0 0 0 0 0 0 0 0 0 0 0 0 0 0 0 0 0 0 0 -0 -0 -0 -0 -0 -0 -0 0 0 -0 -0 -0 -0 -0 -0 0 0 0 0 0 0 0 0
0 0 0 0 0 0 0 0 0 0 0 0 0 0 0 0 -0 -0 0 0 0 0 0 0 0 0 0 0 0 0 0 -0 -0 -0 -0 -0 -0 -0 0 0 -0 -0 -0 -0 -0 0 0 0 0 0 0 0 0 0
0 0 0 0 0 0 0 0 0 0 -0 0 -0 -0 0 -0 -0 -0 -0 0 0 0 0 0 0 0 0 0 0 0 -0 -0 -0 -0 -0 0 -0 -0 0 -0 -0 -0 0 -0 0 0 0 0 0 0 0 0 0 0
0 0 0 0 0 0 0 0 0 -0 -0 -0 -0 -0 -0 -0 0 0 0 0 0 0 0 0 0 0 0 0 0 0 -0 -0 0 -0 -0 -0 0 0 0 -0 -0 0 -0 -0 0 0 0 0 0 0 0 0 0 0
-0 0 -0 0 -0 0 -0 -0 -0 -0 -0 0 0 -0 -0 -0 0 0 0 0 0 -0 -0 -0 -0 -0 -0 0 -0 0 0 -0 -0 -0 -0 0 -0 -0 0 -0 0 -0 -0 -0 0 0 0 0 0 0 0 0 0 0
0 -0 -0 -0 -0 -0 -0 0 -0 -0 0 0 0 0 0 0 -0 -0 -0 -0 -0 -0 -0 -0 -0 -0 0 0 -0 -0 0 0 -0 0 0 -0 -0 0 -0 -0 -0 -0 -0 -0 0 0 0 0 0 0 0 0 0 0
0 0 -0 0 0 -0 -0 -0 0 0 0 0 0 0 0 0 0 0 -0 -0 0 0 -0 0 0 0 0 0 0 0 0 0 -0 -0 0 -0 -0 -0 0 -0 -0 -0 -0 0 0 0 0 0 0 0 0 0 0 0
0 0 -0 0 0 0 0 0 0 0 0 0 0 0 0 0 -0 0 0 0 0 0 0 0 0 0 0 0 0 0 0 -0 0 0 -0 -0 -0 -0 0 0 -0 -0 0 0 0 0 0 0 0 0 0 0 0 0
0 0 0 0 0 0 0 0 0 0 0 0 0 0 0 0 0 0 0 0 0 0 0 0 0 0 0 0 0 0 -0 0 0 -0 -0 0 0 0 -0 -0 -0 -0 -0 -0 0 0 0 0 0 0 0 0 0 0
0 0 0 0 0 0 0 0 0 0 0 0 0 0 0 0 0 0 0 0 0 0 0 0 0 0 0 0 0 0 0 0 0 -0 0 0 0 0 0 -0 -0 -0 0 0 0 0 0 0 0 0 0 0 0 0
0 0 0 0 0 0 0 0 0 0 0 0 0 0 0 0 0 0 0 0 0 0 0 0 0 0 0 0 0 0 0 0 0 -0 -0 0 0 0 0 0 -0 -0 0 0 0 0 0 0 0 0 0 0 0 0
0 0 0 0 0 0 0 0 0 0 0 0 0 0 0 0 0 0 0 0 0 0 0 0 0 0 0 0 0 0 0 0 0 0 0 0 0 0 0 0 0 0 0 -0 -0 0 0 0 0 0 0 0 0 0
0 0 0 0 0 0 0 0 0 0 0 0 0 0 0 0 0 0 0 0 0 0 0 0 0 0 0 0 0 0 0 0 0 -0 0 -0 -0 0 0 0 0 0 0 -0 -0 -0 -0 0 0 0 0 0 0 0
0 0 0 0 0 0 0 0 0 0 0 0 0 0 0 0 0 0 0 0 0 0 0 0 0 0 0 0 0 0 0 0 0 0 0 0 0 0 0 0 0 0 0 0 -0 -0 -0 -0 0 0 0 0 0 0
0 0 0 0 0 0 0 0 0 0 0 0 0 0 0 0 0 0 0 0 0 0 0 0 0 0 0 0 0 0 0 0 0 0 0 0 0 0 0 0 0 0 0 0 0 0 -0 -0 -0 -0 -0 0 0 0
0 0 0 0 0 0 0 0 0 0 0 0 0 0 0 0 0 0 0 0 0 0 0 0 0 0 0 0 0 0 0 0 0 0 0 0 0 -0 0 0 0 -0 -0 -0 -0 0 0 -0 0 0 -0 -0 -0 -0
0 0 0 0 0 0 0 0 0 0 0 0 0 0 0 0 0 0 0 0 0 0 0 0 0 0 -0 -0 -0 -0 -0 -0 -0 -0 -0 0 0 0 -0 -0 -0 -0 -0 -0 -0 -0 -0 -0 -0 -0 0 0 0 -0
Wind_Speed_500mb
44 43 42 41 42 46 46 49 53 50 47 46 41 34 32 28 26 20 5 12 7 15 51 48 22 18 38 37 7 12 16 6 8 9 3 6 4 5 6 8 14 7 8 4 6 8 11 20 43 4 12 19 35 42
51 53 51 47 51 55 59 58 55 48 41 39 36 33 31 27 25 27 19 14 28 28 48 64 64 75 58 39 46 13 9 3 5 2 2 2 6 6 5 7 7 8 5 6 9 11 36 51 26 48 26 32 43 47
45 48 48 53 54 46 43 42 41 38 33 32 32 31 30 28 25 27 31 25 27 23 52 29 34 15 19 38 33 22 17 18 16 19 12 4 11 2 5 10 12 10 17 8 15 9 23 50 69 38 47 54 55 52
39 35 33 35 36 32 32 34 30 28 29 28 29 29 29 29 27 27 30 28 25 14 13 17 16 32 47 52 36 51 47 23 25 21 11 6 6 12 7 12 20 24 11 12 17 30 41 38 41 47 53 47 54 66
32 34 36 30 29 29 33 30 25 25 27 28 28 28 29 30 31 31 31 34 28 21 10 37 78 18 22 24 27 34 48 53 41 13 7 6 9 7 9 8 7 10 11 3 16 50 32 33 50 48 45 62 69 66
22 23 26 27 29 30 26 25 25 26 29 29 28 29 29 29 31 28 8 7 16 14 12 8 30 36 10 14 24 27 34 52 29 11 9 10 11 9 6 7 19 31 33 52 42 36 47 53 46 46 62 68 66 64
24 25 26 26 25 24 23 25 28 30 31 31 31 33 32 29 32 26 11 6 23 20 8 14 15 16 24 20 22 30 33 32 32 15 11 11 13 18 5 9 25 52 45 44 35 56 60 53 54 68 67 63 61 55
25 27 26 24 23 21 23 26 28 30 32 33 32 33 33 33 39 48 30 26 34 14 11 6 11 16 7 8 5 24 26 25 16 13 7 9 6 13 8 15 30 38 49 41 56 64 56 57 63 60 63 56 53 48
25 22 20 17 20 26 30 33 34 32 34 30 31 29 34 32 24 15 4 11 17 19 8 11 6 8 12 15 9 5 18 6 8 8 8 5 5 8 9 30 42 41 38 51 56 53 56 55 51 60 54 45 41 34
25 24 27 27 29 33 30 28 28 29 25 23 24 10 7 6 9 7 11 7 17 17 16 12 9 8 15 13 7 11 3 5 4 9 10 6 5 9 24 27 29 47 48 49 50 46 54 49 53 54 42 35 27 21
27 24 23 27 25 22 21 21 22 20 3 2 3 7 9 6 8 9 11 14 16 9 15 15 32 15 16 6 7 6 3 4 5 6 6 4 4 10 23 25 36 43 42 45 46 50 54 47 50 41 32 22 19 14
23 23 24 22 20 20 21 21 19 14 10 7 12 21 14 8 10 9 8 8 10 9 12 13 17 22 10 13 8 5 4 3 10 15 5 3 6 20 28 28 42 41 41 47 47 58 44 47 33 26 20 15 15 11
23 21 19 19 18 20 21 19 16 13 12 10 7 8 11 15 2 10 9 7 6 10 7 10 4 6 11 8 4 4 6 9 5 4 3 6 11 21 19 36 42 39 41 45 53 44 43 33 29 26 11 22 20 19
21 17 14 14 15 16 17 16 12 12 8 7 10 10 9 9 10 9 8 6 19 19 20 11 5 9 7 10 9 7 9 2 5 1 5 5 19 17 21 33 38 38 41 44 54 43 37 26 27 29 25 23 23 24
22 21 19 19 18 18 15 12 12 17 10 10 12 9 13 30 6 18 20 21 34 21 10 4 8 14 8 7 8 3 6 2 4 5 5 33 25 18 24 33 37 36 37 49 41 43 33 23 25 20 28 23 26 33
20 20 22 19 19 16 12 12 14 18 8 11 15 10 18 5 17 29 17 23 17 13 14 7 9 6 8 6 2 4 5 2 6 7 22 30 17 18 23 27 32 31 35 45 38 37 26 29 29 26 27 31 35 38
18 21 18 17 12 17 17 18 10 14 14 12 16 30 47 37 31 12 27 35 37 17 2 7 8 2 5 3 6 1 7 6 12 17 14 16 22 17 23 20 26 27 34 42 38 30 25 28 26 33 40 41 34 35
19 18 16 18 20 28 25 23 10 10 15 24 15 31 36 44 36 32 33 38 41 29 13 6 16 7 1 4 4 4 11 14 13 19 16 15 12 13 18 17 21 24 30 37 32 23 26 26 39 35 34 46 55 48
27 21 15 12 15 14 8 15 18 11 20 24 32 41 41 41 44 47 42 42 36 29 23 11 5 5 3 6 4 11 13 7 16 10 10 12 9 10 9 14 16 21 30 34 26 21 32 37 42 38 47 45 50 48
16 14 14 16 14 10 8 9 16 13 11 12 26 33 31 39 41 39 36 33 37 37 17 9 7 10 5 3 6 20 24 20 15 4 6 7 5 2 4 8 13 16 23 29 23 23 36 45 37 41 44 43 60 60
14 13 14 7 9 15 10 8 11 13 15 16 25 23 24 26 33 35 46 49 44 32 13 23 34 38 38 32 21 21 26 27 23 14 8 9 10 2 4 6 12 14 20 24 20 20 30 39 41 38 39 38 59 68
8 9 9 11 6 7 13 16 14 17 14 23 40 29 16 15 28 38 34 34 31 35 34 38 42 40 34 33 23 25 22 26 13 13 6 3 8 9 5 1 3 10 14 17 17 20 29 37 36 38 46 51 57 70
8 13 8 9 9 9 14 12 11 8 6 8 8 5 8 9 11 14 9 18 33 40 40 41 40 37 36 31 23 18 17 14 8 11 3 10 9 14 9 6 4 11 10 12 13 18 32 39 40 41 50 56 51 47
4 5 6 7 15 10 9 10 10 7 9 6 7 9 9 7 12 7 6 9 32 29 28 39 37 34 46 33 24 20 15 10 9 10 4 8 17 12 8 10 7 12 10 13 19 21 34 47 41 41 44 54 53 54
7 9 8 10 10 9 7 6 5 8 7 9 6 7 6 10 3 6 5 10 17 7 10 16 29 25 34 28 23 24 19 13 10 1 10 8 16 16 13 12 13 14 14 19 20 24 30 50 51 46 45 49 48 50
8 8 11 8 6 6 5 5 2 5 4 5 5 8 8 3 3 7 6 18 19 14 7 8 21 23 20 25 17 8 13 22 10 17 15 10 12 13 15 14 15 13 10 12 20 24 25 45 59 54 45 53 53 49
5 9 16 14 12 15 12 7 6 7 5 4 3 6 5 4 5 5 13 8 17 14 3 11 13 20 21 20 17 21 18 13 17 25 23 16 16 12 8 9 13 11 11 12 18 20 24 31 58 66 44 41 45 47
11 10 7 13 11 13 6 2 4 4 4 5 8 4 6 4 4 8 14 17 15 10 16 18 17 21 23 31 28 27 31 33 31 26 27 20 15 13 11 13 15 19 18 15 19 22 26 27 36 68 62 37 31 31
12 17 23 27 21 5 2 3 6 6 5 5 4 3 6 9 26 28 17 7 23 38 34 51 46 37 31 37 25 35 36 34 32 30 31 29 26 21 12 16 15 15 19 19 16 20 24 25 26 32 53 59 44 37
19 22 13 11 8 5 9 11 11 22 23 18 10 7 11 21 41 23 34 42 48 47 37 33 37 31 51 49 42 42 37 28 19 21 27 21 19 20 18 16 17 17 17 17 21 23 21 23 26 27 29 30 36 50
14 9 8 13 7 5 6 24 9 12 12 13 14 13 11 19 53 48 48 51 55 52 55 54 49 41 42 40 38 38 36 28 23 19 13 15 22 17 13 12 11 13 18 19 17 16 22 25 26 27 26 27 26 22
11 14 4 4 1 9 14 5 8 10 11 13 19 25 21 16 21 46 48 54 62 63 54 53 55 50 42 40 36 32 26 22 17 12 7 17 21 23 18 18 13 9 11 15 19 22 22 25 26 25 20 20 21 20
8 12 6 2 2 1 5 6 8 5 7 8 16 36 39 27 15 19 43 47 50 47 47 45 36 39 44 42 38 35 33 29 25 23 25 18 25 23 21 19 16 14 12 6 7 9 13 13 23 30 27 22 18 19
Wind_Direction_500mb
267 269 270 275 277 280 288 294 293 295 301 305 310 316 318 324 324 329 345 213 310 272 287 295 265 268 294 297 197 289 346 337 17 29 28 314 305 285 296 272 290 276 291 307 304 250 286 355 347 349 282 304 312 303
264 265 266 268 271 275 278 278 283 284 290 296 303 312 315 317 316 311 301 263 272 265 264 288 275 274 275 286 266 249 226 205 241 100 35 341 310 303 233 285 280 295 138 269 240 248 293 311 313 313 296 310 313 305
271 265 267 267 268 270 275 281 284 285 288 293 301 307 309 311 312 305 307 314 301 290 303 289 298 219 259 270 303 239 240 229 223 228 184 218 252 173 236 246 260 274 291 236 326 291 297 304 305 301 323 315 310 308
265 265 265 269 272 273 279 280 282 281 283 291 298 302 302 301 303 300 299 297 291 284 280 284 281 291 283 282 266 245 247 242 240 214 203 207 239 211 247 253 274 264 303 253 257 280 306 298 318 322 313 312 315 312
264 268 266 270 271 280 278 273 272 278 284 290 296 299 298 296 297 296 297 288 267 223 277 293 300 307 293 280 264 242 234 235 232 201 191 219 223 253 259 260 256 211 220 253 293 306 294 308 317 320 312 317 315 310
274 272 268 265 271 272 268 273 277 280 281 285 294 294 293 293 295 309 287 190 169 242 269 314 296 306 2 233 256 239 233 225 222 220 225 226 235 195 266 263 260 267 283 305 294 324 321 309 316 319 315 316 314 311
265 266 263 265 266 269 276 280 281 281 287 288 287 286 285 284 282 272 247 204 208 239 280 297 283 284 300 275 248 225 226 209 226 234 222 223 230 197 240 262 279 297 315 323 320 332 323 324 316 316 319 315 314 311
262 269 267 265 266 271 277 280 280 282 286 286 286 284 283 281 278 278 287 253 221 252 233 261 272 299 315 319 283 232 209 212 218 225 217 210 217 212 254 274 306 328 324 323 323 321 313 315 317 316 317 319 312 314
256 260 256 262 277 287 287 284 280 282 283 287 283 288 289 276 265 288 224 198 208 203 244 236 210 265 320 10 304 254 201 173 209 214 216 190 226 230 307 315 316 326 328 321 324 322 318 316 316 321 321 323 317 317
254 254 263 268 279 284 277 275 278 279 284 282 287 272 273 277 246 178 193 209 190 218 232 247 232 262 323 348 299 332 270 209 218 230 176 215 241 308 289 306 311 326 329 330 328 325 327 326 325 326 332 329 321 315
249 255 261 278 274 279 275 282 283 288 279 259 240 249 268 287 264 225 220 197 196 232 220 241 228 230 259 181 235 256 270 274 273 231 203 214 259 251 327 311 327 332 327 331 331 330 329 327 327 334 343 348 352 359
242 250 268 263 258 257 273 279 280 275 225 213 286 291 283 236 240 224 204 214 195 228 209 206 229 210 230 225 201 224 225 264 251 159 238 240 257 307 322 330 341 337 330 332 336 339 337 337 342 350 3 20 19 32
245 253 256 254 253 267 274 274 272 269 251 233 238 253 214 222 206 209 219 233 216 217 212 212 241 179 219 206 172 268 230 234 263 243 247 235 286 340 337 344 342 337 336 341 338 348 345 359 12 7 21 52 72 86
235 239 249 252 248 276 271 261 252 236 208 216 214 254 202 228 226 208 231 220 280 293 288 326 290 199 218 189 206 205 230 249 259 53 274 272 313 326 343 352 345 340 344 345 347 351 0 21 30 32 68 73 93 101
229 237 247 250 262 274 253 238 239 215 205 237 230 234 220 235 256 23 281 301 301 292 10 313 286 220 234 223 191 207 227 255 102 321 324 334 323 322 347 354 344 345 349 350 355 1 15 47 53 59 63 80 97 112
232 244 251 258 256 240 215 210 218 194 234 240 237 271 295 10 337 326 327 296 283 50 340 343 250 244 224 189 195 347 68 108 255 261 296 321 320 329 344 349 343 348 351 356 0 11 46 61 55 72 85 100 108 113
231 237 250 252 259 202 207 203 190 214 231 235 238 250 269 277 269 287 320 322 315 333 202 217 266 277 340 102 70 154 196 214 242 294 309 317 316 323 340 343 351 354 355 359 9 25 72 87 78 66 82 88 115 111
230 238 254 252 238 207 207 203 230 255 233 246 258 267 282 287 296 302 297 293 307 310 293 231 290 14 38 99 86 250 266 273 285 291 299 293 311 315 337 345 2 4 4 3 19 46 90 81 56 100 99 102 98 107
239 229 235 253 225 212 226 214 206 255 249 256 260 263 267 275 278 286 285 281 285 276 286 265 246 213 171 116 132 354 336 312 304 307 296 324 320 306 1 10 10 11 8 15 28 66 89 73 91 104 118 100 104 115
206 204 234 246 246 202 246 245 200 241 260 245 260 256 268 270 271 270 271 267 272 259 228 210 213 258 171 178 36 318 316 322 322 262 265 306 273 340 34 25 21 14 20 24 41 104 93 85 103 106 121 108 115 109
226 244 206 219 226 229 261 262 253 241 258 249 271 292 286 275 273 257 249 261 236 243 229 234 238 253 264 263 268 297 299 286 308 290 321 250 216 220 73 35 23 39 30 24 55 107 124 98 85 116 111 104 125 111
179 164 166 189 243 244 258 237 241 288 289 266 282 276 243 238 262 272 271 268 248 255 248 247 254 256 263 258 226 266 268 295 254 247 321 150 160 157 137 91 31 53 44 34 59 105 136 118 98 113 124 125 118 115
156 187 236 228 224 245 258 242 231 246 258 267 277 269 250 241 235 263 229 247 257 257 248 245 248 250 245 245 257 235 278 315 283 208 151 146 118 125 107 97 63 61 91 46 54 118 145 134 101 119 129 135 139 138
180 227 237 233 209 262 265 232 226 263 274 277 315 297 299 313 335 318 261 253 259 250 246 234 236 245 238 222 213 223 268 302 187 134 108 159 135 130 107 81 99 63 97 96 83 114 147 144 120 114 138 140 140 144
242 227 221 251 233 243 252 242 221 215 247 299 283 251 315 337 282 241 245 335 2 320 236 202 213 219 199 206 224 238 246 241 185 66 147 109 138 141 136 98 105 74 112 108 99 113 137 149 138 113 128 141 144 148
232 227 208 246 215 229 305 280 300 280 254 250 256 283 299 322 280 260 297 339 340 344 326 224 198 197 200 208 213 215 202 173 178 136 126 143 148 140 133 119 124 132 92 128 114 105 121 159 154 134 125 121 125 142
267 254 232 244 258 250 292 317 279 245 264 284 334 306 297 248 246 271 300 337 334 335 347 147 161 191 185 171 141 162 181 173 141 122 125 121 107 113 95 103 107 106 139 103 127 113 119 139 165 156 147 135 128 128
250 275 192 239 255 271 212 235 308 266 260 279 297 272 298 306 273 286 308 348 344 75 117 130 146 166 146 146 163 147 133 138 133 128 124 113 108 120 96 94 103 89 101 119 108 119 122 120 149 169 162 166 155 143
245 245 269 271 280 252 127 198 261 257 268 287 263 271 280 281 324 340 13 46 123 120 114 124 119 127 135 160 156 148 157 158 144 140 128 121 125 131 133 111 107 96 97 112 125 110 105 109 116 147 177 181 179 183
249 248 261 274 288 215 229 224 266 298 302 281 277 287 335 26 46 86 90 115 117 109 111 112 111 111 129 137 133 136 146 152 151 133 127 123 125 123 129 118 112 112 114 123 131 139 134 140 128 119 130 148 173 193
253 270 235 218 212 257 300 312 345 66 40 21 43 26 69 61 57 62 74 88 93 94 103 106 104 111 115 121 127 133 130 132 138 135 130 147 159 157 137 130 130 119 115 107 124 145 154 153 153 146 139 142 138 126
237 236 128 73 60 307 324 53 43 51 71 59 44 51 52 56 54 50 76 87 92 93 90 89 87 85 80 83 97 100 107 109 105 100 152 182 158 170 170 172 158 140 121 123 116 118 147 168 173 178 179 178 166 153
74 61 33 313 251 346 90 66 46 52 5 54 95 73 61 61 70 68 82 83 86 87 85 86 103 92 75 75 80 81 83 87 86 79 70 97 166 163 155 161 171 185 175 154 148 132 129 138 185 192 189 187 191 201
Wind_Speed_850mb
44 43 42 41 42 46 46 49 53 50 47 46 41 34 32 28 26 20 5 12 7 15 51 48 22 18 38 37 7 12 16 6 8 9 3 6 4 5 6 8 14 7 8 4 6 8 11 20 43 4 12 19 35 42
51 53 51 47 51 55 59 58 55 48 41 39 36 33 31 27 25 27 19 14 28 28 48 64 64 75 58 39 46 13 9 3 5 2 2 2 6 6 5 7 7 8 5 6 9 11 36 51 26 48 26 32 43 47
45 48 48 53 54 46 43 42 41 38 33 32 32 31 30 28 25 27 31 25 27 23 52 29 34 15 19 38 33 22 17 18 16 19 12 4 11 2 5 10 12 10 17 8 15 9 23 50 69 38 47 54 55 52
39 35 33 35 36 32 32 34 30 28 29 28 29 29 29 29 27 27 30 28 25 14 13 17 16 32 47 52 36 51 47 23 25 21 11 6 6 12 7 12 20 24 11 12 17 30 41 38 41 47 53 47 54 66
32 34 36 30 29 29 33 30 25 25 27 28 28 28 29 30 31 31 31 34 28 21 10 37 78 18 22 24 27 34 48 53 41 13 7 6 9 7 9 8 7 10 11 3 16 50 32 33 50 48 45 62 69 66
22 23 26 27 29 30 26 25 25 26 29 29 28 29 29 29 31 28 8 7 16 14 12 8 30 36 10 14 24 27 34 52 29 11 9 10 11 9 6 7 19 31 33 52 42 36 47 53 46 46 62 68 66 64
24 25 26 26 25 24 23 25 28 30 31 31 31 33 32 29 32 26 11 6 23 20 8 14 15 16 24 20 22 30 33 32 32 15 11 11 13 18 5 9 25 52 45 44 35 56 60 53 54 68 67 63 61 55
25 27 26 24 23 21 23 26 28 30 32 33 32 33 33 33 39 48 30 26 34 14 11 6 11 16 7 8 5 24 26 25 16 13 7 9 6 13 8 15 30 38 49 41 56 64 56 57 63 60 63 56 53 48
25 22 20 17 20 26 30 33 34 32 34 30 31 29 34 32 24 15 4 11 17 19 8 11 6 8 12 15 9 5 18 6 8 8 8 5 5 8 9 30 42 41 38 51 56 53 56 55 51 60 54 45 41 34
25 24 27 27 29 33 30 28 28 29 25 23 24 10 7 6 9 7 11 7 17 17 16 12 9 8 15 13 7 11 3 5 4 9 10 6 5 9 24 27 29 47 48 49 50 46 54 49 53 54 42 35 27 21
27 24 23 27 25 22 21 21 22 20 3 2 3 7 9 6 8 9 11 14 16 9 15 15 32 15 16 6 7 6 3 4 5 6 6 4 4 10 23 25 36 43 42 45 46 50 54 47 50 41 32 22 19 14
23 23 24 22 20 20 21 21 19 14 10 7 12 21 14 8 10 9 8 8 10 9 12 13 17 22 10 13 8 5 4 3 10 15 5 3 6 20 28 28 42 41 41 47 47 58 44 47 33 26 20 15 15 11
23 21 19 19 18 20 21 19 16 13 12 10 7 8 11 15 2 10 9 7 6 10 7 10 4 6 11 8 4 4 6 9 5 4 3 6 11 21 19 36 42 39 41 45 53 44 43 33 29 26 11 22 20 19
21 17 14 14 15 16 17 16 12 12 8 7 10 10 9 9 10 9 8 6 19 19 20 11 5 9 7 10 9 7 9 2 5 1 5 5 19 17 21 33 38 38 41 44 54 43 37 26 27 29 25 23 23 24
22 21 19 19 18 18 15 12 12 17 10 10 12 9 13 30 6 18 20 21 34 21 10 4 8 14 8 7 8 3 6 2 4 5 5 33 25 18 24 33 37 36 37 49 41 43 33 23 25 20 28 23 26 33
20 20 22 19 19 16 12 12 14 18 8 11 15 10 18 5 17 29 17 23 17 13 14 7 9 6 8 6 2 4 5 2 6 7 22 30 17 18 23 27 32 31 35 45 38 37 26 29 29 26 27 31 35 38
18 21 18 17 12 17 17 18 10 14 14 12 16 30 47 37 31 12 27 35 37 17 2 7 8 2 5 3 6 1 7 6 12 17 14 16 22 17 23 20 26 27 34 42 38 30 25 28 26 33 40 41 34 35
19 18 16 18 20 28 25 23 10 10 15 24 15 31 36 44 36 32 33 38 41 29 13 6 16 7 1 4 4 4 11 14 13 19 16 15 12 13 18 17 21 24 30 37 32 23 26 26 39 35 34 46 55 48
27 21 15 12 15 14 8 15 18 11 20 24 32 41 41 41 44 47 42 42 36 29 23 11 5 5 3 6 4 11 13 7 16 10 10 12 9 10 9 14 16 21 30 34 26 21 32 37 42 38 47 45 50 48
16 14 14 16 14 10 8 9 16 13 11 12 26 33 31 39 41 39 36 33 37 37 17 9 7 10 5 3 6 20 24 20 15 4 6 7 5 2 4 8 13 16 23 29 23 23 36 45 37 41 44 43 60 60
14 13 14 7 9 15 10 8 11 13 15 16 25 23 24 26 33 35 46 49 44 32 13 23 34 38 38 32 21 21 26 27 23 14 8 9 10 2 4 6 12 14 20 24 20 20 30 39 41 38 39 38 59 68
8 9 9 11 6 7 13 16 14 17 14 23 40 29 16 15 28 38 34 34 31 35 34 38 42 40 34 33 23 25 22 26 13 13 6 3 8 9 5 1 3 10 14 17 17 20 29 37 36 38 46 51 57 70
8 13 8 9 9 9 14 12 11 8 6 8 8 5 8 9 11 14 9 18 33 40 40 41 40 37 36 31 23 18 17 14 8 11 3 10 9 14 9 6 4 11 10 12 13 18 32 39 40 41 50 56 51 47
4 5 6 7 15 10 9 10 10 7 9 6 7 9 9 7 12 7 6 9 32 29 28 39 37 34 46 33 24 20 15 10 9 10 4 8 17 12 8 10 7 12 10 13 19 21 34 47 41 41 44 54 53 54
7 9 8 10 10 9 7 6 5 8 7 9 6 7 6 10 3 6 5 10 17 7 10 16 29 25 34 28 23 24 19 13 10 1 10 8 16 16 13 12 13 14 14 19 20 24 30 50 51 46 45 49 48 50
8 8 11 8 6 6 5 5 2 5 4 5 5 8 8 3 3 7 6 18 19 14 7 8 21 23 20 25 17 8 13 22 10 17 15 10 12 13 15 14 15 13 10 12 20 24 25 45 59 54 45 53 53 49
5 9 16 14 12 15 12 7 6 7 5 4 3 6 5 4 5 5 13 8 17 14 3 11 13 20 21 20 17 21 18 13 17 25 23 16 16 12 8 9 13 11 11 12 18 20 24 31 58 66 44 41 45 47
11 10 7 13 11 13 6 2 4 4 4 5 8 4 6 4 4 8 14 17 15 10 16 18 17 21 23 31 28 27 31 33 31 26 27 20 15 13 11 13 15 19 18 15 19 22 26 27 36 68 62 37 31 31
12 17 23 27 21 5 2 3 6 6 5 5 4 3 6 9 26 28 17 7 23 38 34 51 46 37 31 37 25 35 36 34 32 30 31 29 26 21 12 16 15 15 19 19 16 20 24 25 26 32 53 59 44 37
19 22 13 11 8 5 9 11 11 22 23 18 10 7 11 21 41 23 34 42 48 47 37 33 37 31 51 49 42 42 37 28 19 21 27 21 19 20 18 16 17 17 17 17 21 23 21 23 26 27 29 30 36 50
14 9 8 13 7 5 6 24 9 12 12 13 14 13 11 19 53 48 48 51 55 52 55 54 49 41 42 40 38 38 36 28 23 19 13 15 22 17 13 12 11 13 18 19 17 16 22 25 26 27 26 27 26 22
11 14 4 4 1 9 14 5 8 10 11 13 19 25 21 16 21 46 48 54 62 63 54 53 55 50 42 40 36 32 26 22 17 12 7 17 21 23 18 18 13 9 11 15 19 22 22 25 26 25 20 20 21 20
8 12 6 2 2 1 5 6 8 5 7 8 16 36 39 27 15 19 43 47 50 47 47 45 36 39 44 42 38 35 33 29 25 23 25 18 25 23 21 19 16 14 12 6 7 9 13 13 23 30 27 22 18 19
Wind_Direction_850mb
267 269 270 275 277 280 288 294 293 295 301 305 310 316 318 324 324 329 345 213 310 272 287 295 265 268 294 297 197 289 346 337 17 29 28 314 305 285 296 272 290 276 291 307 304 250 286 355 347 349 282 304 312 303
264 265 266 268 271 275 278 278 283 284 290 296 303 312 315 317 316 311 301 263 272 265 264 288 275 274 275 286 266 249 226 205 241 100 35 341 310 303 233 285 280 295 138 269 240 248 293 311 313 313 296 310 313 305
271 265 267 267 268 270 275 281 284 285 288 293 301 307 309 311 312 305 307 314 301 290 303 289 298 219 259 270 303 239 240 229 223 228 184 218 252 173 236 246 260 274 291 236 326 291 297 304 305 301 323 315 310 308
265 265 265 269 272 273 279 280 282 281 283 291 298 302 302 301 303 300 299 297 291 284 280 284 281 291 283 282 266 245 247 242 240 214 203 207 239 211 247 253 274 264 303 253 257 280 306 298 318 322 313 312 315 312
264 268 266 270 271 280 278 273 272 278 284 290 296 299 298 296 297 296 297 288 267 223 277 293 300 307 293 280 264 242 234 235 232 201 191 219 223 253 259 260 256 211 220 253 293 306 294 308 317 320 312 317 315 310
274 272 268 265 271 272 268 273 277 280 281 285 294 294 293 293 295 309 287 190 169 242 269 314 296 306 2 233 256 239 233 225 222 220 225 226 235 195 266 263 260 267 283 305 294 324 321 309 316 319 315 316 314 311
265 266 263 265 266 269 276 280 281 281 287 288 287 286 285 284 282 272 247 204 208 239 280 297 283 284 300 275 248 225 226 209 226 234 222 223 230 197 240 262 279 297 315 323 320 332 323 324 316 316 319 315 314 311
262 269 267 265 266 271 277 280 280 282 286 286 286 284 283 281 278 278 287 253 221 252 233 261 272 299 315 319 283 232 209 212 218 225 217 210 217 212 254 274 306 328 324 323 323 321 313 315 317 316 317 319 312 314
256 260 256 262 277 287 287 284 280 282 283 287 283 288 289 276 265 288 224 198 208 203 244 236 210 265 320 10 304 254 201 173 209 214 216 190 226 230 307 315 316 326 328 321 324 322 318 316 316 321 321 323 317 317
254 254 263 268 279 284 277 275 278 279 284 282 287 272 273 277 246 178 193 209 190 218 232 247 232 262 323 348 299 332 270 209 218 230 176 215 241 308 289 306 311 326 329 330 328 325 327 326 325 326 332 329 321 315
249 255 261 278 274 279 275 282 283 288 279 259 240 249 268 287 264 225 220 197 196 232 220 241 228 230 259 181 235 256 270 274 273 231 203 214 259 251 327 311 327 332 327 331 331 330 329 327 327 334 343 348 352 359
242 250 268 263 258 257 273 279 280 275 225 213 286 291 283 236 240 224 204 214 195 228 209 206 229 210 230 225 201 224 225 264 251 159 238 240 257 307 322 330 341 337 330 332 336 339 337 337 342 350 3 20 19 32
245 253 256 254 253 267 274 274 272 269 251 233 238 253 214 222 206 209 219 233 216 217 212 212 241 179 219 206 172 268 230 234 263 243 247 235 286 340 337 344 342 337 336 341 338 348 345 359 12 7 21 52 72 86
235 239 249 252 248 276 271 261 252 236 208 216 214 254 202 228 226 208 231 220 280 293 288 326 290 199 218 189 206 205 230 249 259 53 274 272 313 326 343 352 345 340 344 345 347 351 0 21 30 32 68 73 93 101
229 237 247 250 262 274 253 238 239 215 205 237 230 234 220 235 256 23 281 301 301 292 10 313 286 220 234 223 191 207 227 255 102 321 324 334 323 322 347 354 344 345 349 350 355 1 15 47 53 59 63 80 97 112
232 244 251 258 256 240 215 210 218 194 234 240 237 271 295 10 337 326 327 296 283 50 340 343 250 244 224 189 195 347 68 108 255 261 296 321 320 329 344 349 343 348 351 356 0 11 46 61 55 72 85 100 108 113
231 237 250 252 259 202 207 203 190 214 231 235 238 250 269 277 269 287 320 322 315 333 202 217 266 277 340 102 70 154 196 214 242 294 309 317 316 323 340 343 351 354 355 359 9 25 72 87 78 66 82 88 115 111
230 238 254 252 238 207 207 203 230 255 233 246 258 267 282 287 296 302 297 293 307 310 293 231 290 14 38 99 86 250 266 273 285 291 299 293 311 315 337 345 2 4 4 3 19 46 90 81 56 100 99 102 98 107
239 229 235 253 225 212 226 214 206 255 249 256 260 263 267 275 278 286 285 281 285 276 286 265 246 213 171 116 132 354 336 312 304 307 296 324 320 306 1 10 10 11 8 15 28 66 89 73 91 104 118 100 104 115
206 204 234 246 246 202 246 245 200 241 260 245 260 256 268 270 271 270 271 267 272 259 228 210 213 258 171 178 36 318 316 322 322 262 265 306 273 340 34 25 21 14 20 24 41 104 93 85 103 106 121 108 115 109
226 244 206 219 226 229 261 262 253 241 258 249 271 292 286 275 273 257 249 261 236 243 229 234 238 253 264 263 268 297 299 286 308 290 321 250 216 220 73 35 23 39 30 24 55 107 124 98 85 116 111 104 125 111
179 164 166 189 243 244 258 237 241 288 289 266 282 276 243 238 262 272 271 268 248 255 248 247 254 256 263 258 226 266 268 295 254 247 321 150 160 157 137 91 31 53 44 34 59 105 136 118 98 113 124 125 118 115
156 187 236 228 224 245 258 242 231 246 258 267 277 269 250 241 235 263 229 247 257 257 248 245 248 250 245 245 257 235 278 315 283 208 151 146 118 125 107 97 63 61 91 46 54 118 145 134 101 119 129 135 139 138
180 227 237 233 209 262 265 232 226 263 274 277 315 297 299 313 335 318 261 253 259 250 246 234 236 245 238 222 213 223 268 302 187 134 108 159 135 130 107 81 99 63 97 96 83 114 147 144 120 114 138 140 140 144
242 227 221 251 233 243 252 242 221 215 247 299 283 251 315 337 282 241 245 335 2 320 236 202 213 219 199 206 224 238 246 241 185 66 147 109 138 141 136 98 105 74 112 108 99 113 137 149 138 113 128 141 144 148
232 227 208 246 215 229 305 280 300 280 254 250 256 283 299 322 280 260 297 339 340 344 326 224 198 197 200 208 213 215 202 173 178 136 126 143 148 140 133 119 124 132 92 128 114 105 121 159 154 134 125 121 125 142
267 254 232 244 258 250 292 317 279 245 264 284 334 306 297 248 246 271 300 337 334 335 347 147 161 191 185 171 141 162 181 173 141 122 125 121 107 113 95 103 107 106 139 103 127 113 119 139 165 156 147 135 128 128
250 275 192 239 255 271 212 235 308 266 260 279 297 272 298 306 273 286 308 348 344 75 117 130 146 166 146 146 163 147 133 138 133 128 124 113 108 120 96 94 103 89 101 119 108 119 122 120 149 169 162 166 155 143
245 245 269 271 280 252 127 198 261 257 268 287 263 271 280 281 324 340 13 46 123 120 114 124 119 127 135 160 156 148 157 158 144 140 128 121 125 131 133 111 107 96 97 112 125 110 105 109 116 147 177 181 179 183
249 248 261 274 288 215 229 224 266 298 302 281 277 287 335 26 46 86 90 115 117 109 111 112 111 111 129 137 133 136 146 152 151 133 127 123 125 123 129 118 112 112 114 123 131 139 134 140 128 119 130 148 173 193
253 270 235 218 212 257 300 312 345 66 40 21 43 26 69 61 57 62 74 88 93 94 103 106 104 111 115 121 127 133 130 132 138 135 130 147 159 157 137 130 130 119 115 107 124 145 154 153 153 146 139 142 138 126
237 236 128 73 60 307 324 53 43 51 71 59 44 51 52 56 54 50 76 87 92 93 90 89 87 85 80 83 97 100 107 109 105 100 152 182 158 170 170 172 158 140 121 123 116 118 147 168 173 178 179 178 166 153
74 61 33 313 251 346 90 66 46 52 5 54 95 73 61 61 70 68 82 83 86 87 85 86 103 92 75 75 80 81 83 87 86 79 70 97 166 163 155 161 171 185 175 154 148 132 129 138 185 192 189 187 191 201